Flag for U.S.A. Weather past 2 weeks in Mobile, Alabama, U.S.A.

Now
90 °F

Passing clouds.


Feels Like: 102 °F
Forecast: 77 / 92 °F
Wind: 3 mph from North

Location: Mobile Downtown Airport

Current Time: Jul 28, 2014 at 6:30:21 PM

Latest Report: Jul 28, 2014 at 5:53 PM


Visibility: 10 mi

Pressure: 29.95 "Hg

Humidity: 63%

Dew point: 76 °F

Location of MobileLocation

Historic Weather in Mobile — Graph

°F

Mobile temperature yesterday

Maximum temperature yesterday: 93 °F (at 3:53 PM)
Minimum temperature yesterday: 79 °F (at 3:53 AM)
Average temperature yesterday: 85 °F

Past Weeks' High & Low Weather Summary

 TemperatureHumidityPressure
High95 °F (Jul 28, 2:53 PM)100% (Jul 14, 4:53 AM)30.11 "Hg (Jul 14, 4:53 AM)
Low64 °F (Jul 17, 5:53 AM)42% (Jul 16, 3:53 PM)29.90 "Hg (Jul 15, 5:53 PM)
Average80 °F83%30.01 "Hg
* Reported Jul 13 4:53 PM — Jul 28 4:53 PM, Mobile, Weather by CustomWeather, © 2014

Note: Actual official high and low records may vary slightly from our data, if they occured in-between our weather recording intervals... More about our weather records

Advertising

Mobile weather history for previous 24 hours

 ConditionsComfort  
Time TempWeatherWind HumidityBarometerVisibility
4:53 PM
Jul 28
93 °FScattered clouds.10 mph54%29.96 "Hg10 mi
3:53 PM95 °FScattered clouds.8 mph54%29.96 "Hg10 mi
2:53 PM95 °FScattered clouds.9 mph51%29.98 "Hg10 mi
1:53 PM94 °FScattered clouds.9 mph56%30.00 "Hg10 mi
12:53 PM94 °FScattered clouds.7 mph56%30.02 "Hg10 mi
11:53 AM92 °FScattered clouds.10 mph60%30.04 "Hg10 mi
10:53 AM90 °FScattered clouds.12 mph66%30.05 "Hg10 mi
9:53 AM88 °FSunny.9 mph70%30.06 "Hg10 mi
8:53 AM86 °FSunny.8 mph72%30.06 "Hg10 mi
7:53 AM82 °FSunny.8 mph82%30.06 "Hg10 mi
6:53 AM80 °FClear.8 mph90%30.06 "Hg10 mi
5:53 AM79 °FClear.8 mph94%30.04 "Hg10 mi
4:53 AM80 °FClear.6 mph90%30.03 "Hg10 mi
3:53 AM80 °FClear.7 mph90%30.01 "Hg10 mi
2:53 AM81 °FClear.7 mph91%30.00 "Hg10 mi
1:53 AM82 °FClear.6 mph91%30.01 "Hg10 mi
12:53 AM82 °FClear.7 mph88%30.03 "Hg10 mi
11:53 PM
Jul 27
82 °FClear.7 mph88%30.04 "Hg10 mi
10:53 PM82 °FClear.6 mph88%30.05 "Hg10 mi
9:53 PM82 °FClear.3 mph85%30.05 "Hg10 mi
8:53 PM83 °FClear.6 mph82%30.03 "Hg10 mi
7:53 PM85 °FSunny.6 mph77%30.01 "Hg10 mi
6:53 PM87 °FSunny.7 mph65%30.01 "Hg10 mi
Weather by CustomWeather, © 2014

See weather overviewHow to use our weather pages